Wind_Speed
14 14 14 14 14 13 12 11 11 11 10 9 9 8 8 8 8 7 6 5 5 5 5 6 5 5 6 6 5 5 5 5 5 6 6 6 7 7 7 7 8 8 8
15 14 14 14 14 14 13 12 12 12 11 10 9 8 8 8 8 7 7 6 6 6 6 6 6 6 6 6 6 6 6 6 6 7 7 7 7 7 7 8 8 8 8
15 14 14 14 14 14 13 13 12 12 11 10 9 9 9 9 8 8 7 7 7 7 7 6 6 6 6 6 6 7 7 7 7 7 8 8 8 8 8 8 9 9 9
15 15 15 15 14 14 14 13 12 12 12 11 10 10 10 9 9 8 8 8 7 7 7 7 7 7 7 7 7 8 8 8 8 8 8 9 9 9 9 9 9 10 10
15 15 15 15 15 14 14 14 13 13 12 11 11 10 10 10 10 9 9 8 8 8 8 8 8 8 8 8 8 8 8 8 9 9 9 9 9 10 10 10 10 10 10
15 16 16 15 15 14 14 13 13 12 12 11 11 11 10 10 10 10 9 9 9 9 9 9 9 8 9 9 9 9 9 9 10 10 10 10 10 10 11 11 11 11 11
15 16 16 15 14 14 13 13 13 12 11 11 11 11 11 11 11 10 10 10 9 10 10 10 10 10 10 10 10 10 10 11 11 11 11 12 12 12 12 12 12 12 12
14 14 14 15 14 13 13 12 12 12 12 12 11 11 11 11 11 11 10 10 10 11 11 11 11 11 11 11 11 11 11 12 12 13 13 13 13 13 13 12 12 12 13
13 13 13 13 13 13 13 12 12 12 12 12 12 12 12 12 11 11 11 11 12 12 11 11 11 11 11 12 12 12 13 13 13 13 13 14 14 14 13 13 13 14 14
12 13 13 13 13 13 13 13 13 13 13 12 12 12 12 12 11 11 12 12 12 12 12 12 12 12 12 12 13 13 13 14 14 14 14 14 14 14 14 14 14 15 15
12 13 13 13 13 13 13 13 13 13 13 12 13 13 13 12 12 12 12 12 12 12 13 13 12 13 13 14 14 14 15 15 15 15 15 15 15 15 15 15 16 16 17
13 13 13 13 13 13 13 13 14 14 13 13 14 14 13 13 13 13 13 13 13 13 13 14 14 14 14 14 14 15 15 15 15 15 15 15 15 15 15 16 17 17 18
13 14 13 13 13 13 14 14 14 14 15 14 14 14 13 13 13 13 14 14 14 14 15 15 15 15 15 15 16 16 16 17 17 17 17 17 17 17 17 17 18 19 19
13 13 13 13 14 14 14 14 14 14 14 14 15 15 14 14 15 15 15 16 16 16 16 16 16 16 16 17 17 17 17 18 18 18 18 18 18 18 19 19 20 21 21
13 14 14 14 15 15 15 15 15 15 15 15 15 15 16 16 16 16 16 17 17 17 17 17 17 17 17 17 17 18 18 19 19 18 19 19 19 20 20 21 21 22 22
13 14 15 15 15 15 16 15 15 15 16 16 16 16 17 17 17 17 17 17 17 17 17 17 18 18 18 18 19 19 19 19 20 20 20 20 21 21 21 22 23 23 24
14 15 15 15 14 14 14 14 15 15 15 16 16 16 17 17 17 17 17 18 18 18 19 19 19 19 19 19 19 19 19 20 20 21 22 22 22 23 23 24 25 25 25
14 14 14 14 14 14 14 15 16 16 16 16 16 17 17 17 17 17 18 18 19 19 19 19 19 19 19 19 19 20 20 21 21 22 23 24 24 24 25 26 26 26 27
14 14 14 14 14 15 15 16 17 17 17 17 17 18 18 18 18 18 19 19 19 19 19 19 19 20 20 20 21 21 22 22 23 23 24 25 26 27 27 28 28 28 29
15 15 15 15 16 16 16 16 16 17 17 17 18 19 19 19 19 19 19 19 19 19 19 19 20 20 20 21 22 22 23 23 24 25 26 27 28 29 29 29 30 30 31
16 16 16 16 17 17 16 17 17 17 17 17 18 19 19 19 19 19 19 19 19 20 20 20 21 21 22 22 23 24 25 26 26 27 28 28 28 29 29 30 31 32 33
16 16 17 17 17 18 18 17 17 18 18 18 19 19 20 19 19 20 20 20 20 21 21 22 23 23 23 24 25 26 27 27 28 29 30 30 30 30 31 32 33 34 35
16 17 17 17 18 18 19 19 19 19 19 20 20 21 21 21 21 21 22 22 22 22 23 23 24 24 24 25 26 27 28 29 30 31 31 32 33 33 34 35 36 36 37
18 18 18 18 19 20 21 21 21 21 22 22 22 22 22 22 22 23 23 24 24 24 24 24 25 25 26 27 28 29 30 31 32 32 33 34 34 35 36 36 38 38 39
19 19 19 19 20 21 22 22 23 23 23 24 24 24 23 23 23 24 24 25 25 25 26 26 26 27 28 29 31 32 32 33 34 34 35 35 36 37 38 38 39 40 40
20 20 20 19 20 20 21 22 23 24 24 24 24 24 24 24 24 25 26 26 27 27 28 28 29 30 31 32 33 34 35 36 36 36 36 37 38 39 39 40 41 41 42
Wind_Direction
234 234 234 236 237 236 235 233 235 242 248 254 260 267 264 260 258 259 269 277 282 287 296 298 305 311 314 317 316 319 325 326 325 324 322 319 316 309 305 303 296 291 288
235 235 236 236 237 237 235 237 240 244 249 253 259 266 267 260 257 261 266 272 281 290 299 296 296 302 304 305 307 311 314 314 314 315 315 315 315 316 311 308 300 292 286
237 237 237 236 238 237 236 238 241 246 249 255 259 261 263 262 255 259 264 270 279 288 297 300 297 299 297 298 300 304 304 303 304 305 307 307 309 313 315 312 305 299 294
238 237 238 240 240 239 238 239 242 246 250 253 255 257 259 256 254 256 260 267 276 283 289 292 295 295 293 297 299 300 301 300 301 303 305 304 304 306 308 308 307 303 300
239 240 239 240 238 240 241 242 244 248 251 252 251 254 255 254 254 253 258 265 270 277 281 284 290 293 295 297 297 299 299 298 299 301 303 303 303 303 304 305 304 302 300
241 241 239 238 238 240 242 244 247 250 252 251 250 250 252 253 255 254 258 262 265 270 276 281 285 290 294 296 296 297 298 299 299 300 299 299 300 301 302 302 303 301 300
240 240 239 238 238 239 242 245 248 251 252 253 251 251 252 254 255 256 258 261 265 270 275 280 282 287 292 292 292 295 298 299 299 299 300 299 298 298 299 299 300 301 301
238 236 236 236 237 239 242 245 248 249 250 251 253 253 254 255 256 256 257 260 265 271 275 279 283 284 287 290 292 294 298 299 300 300 298 297 297 297 297 298 299 299 299
235 234 235 235 236 240 243 246 247 249 250 251 252 254 256 256 256 257 259 264 269 272 276 279 282 285 286 289 293 294 295 297 298 299 297 297 298 299 297 297 297 298 298
235 235 236 236 237 240 242 244 247 248 250 251 254 255 255 255 255 259 264 267 270 275 278 278 282 283 285 288 292 294 295 297 297 297 297 297 297 298 300 300 297 296 297
233 233 234 236 237 239 241 244 248 249 251 253 255 255 255 256 257 264 267 271 276 277 276 279 283 284 286 289 291 292 294 295 295 295 297 298 298 297 298 297 296 295 295
237 235 234 237 239 242 243 246 249 250 252 254 255 255 256 257 261 264 268 271 272 274 278 280 282 284 287 289 291 292 294 293 293 294 295 296 298 298 298 298 297 297 296
239 239 239 241 242 245 247 249 251 252 255 255 255 254 256 259 263 265 267 270 271 274 278 280 282 284 286 288 290 291 292 292 290 291 291 293 293 294 295 296 296 296 295
244 245 244 246 246 247 249 251 251 253 254 254 254 255 258 261 264 265 266 268 272 275 278 280 282 283 285 288 289 289 290 290 289 289 290 291 292 292 293 294 295 295 294
250 250 250 251 248 249 250 250 251 253 254 255 256 258 261 264 265 266 268 270 274 276 277 279 281 283 284 286 287 288 288 289 289 290 290 290 291 291 291 293 294 295 295
251 252 252 252 252 252 252 250 252 256 257 258 258 259 263 266 267 269 271 272 273 275 277 279 282 283 284 286 288 288 287 288 289 288 289 290 289 289 290 292 293 295 295
254 256 256 255 255 255 256 255 256 258 260 261 262 262 265 267 267 269 271 272 273 274 276 278 281 283 284 285 287 289 288 288 289 290 290 290 289 291 291 292 292 293 293
259 260 258 257 258 256 260 259 259 260 261 262 263 265 269 270 272 271 272 274 274 275 278 279 280 282 284 285 286 289 290 290 290 291 291 290 290 290 291 292 292 292 294
260 262 263 259 260 260 263 263 262 262 263 263 265 268 269 271 274 274 274 275 276 276 277 279 280 281 283 285 286 288 290 291 291 291 291 291 290 289 290 291 291 292 293
262 263 262 260 260 261 263 265 265 266 265 265 267 268 269 271 273 274 275 276 277 277 277 279 281 282 283 284 287 289 290 291 291 291 292 292 291 291 290 291 292 293 293
262 261 260 261 260 259 262 265 266 268 266 266 267 268 270 271 272 273 276 277 277 278 279 280 280 282 283 284 286 289 290 291 292 292 292 293 292 292 292 293 293 293 293
264 261 259 260 259 260 262 265 265 266 266 267 268 269 270 270 270 272 275 277 279 280 281 283 282 281 282 284 287 289 290 291 291 292 292 293 293 292 292 293 293 293 293
267 263 262 263 261 262 262 264 265 264 265 268 269 270 270 270 271 272 275 278 279 281 283 284 284 284 285 287 289 291 291 292 291 291 292 292 293 293 293 292 293 293 294
266 263 262 263 265 265 265 265 264 265 267 269 271 270 270 271 271 274 277 279 281 282 283 284 285 287 288 289 290 291 292 292 291 291 292 293 294 294 293 293 293 294 295
266 266 265 266 266 266 265 266 268 269 270 272 272 273 274 273 273 276 278 280 282 284 285 286 287 288 289 289 290 291 292 292 293 293 293 293 294 294 294 294 295 295 296
266 267 266 267 268 269 269 269 270 271 273 274 274 275 276 276 277 279 280 282 283 285 286 287 288 289 290 291 291 291 292 292 292 292 293 294 294 295 295 295 295 295 295
Height
5881 5882 5884 5885 5886 5886 5887 5889 5890 5890 5891 5891 5891 5891 5891 5891 5891 5891 5890 5890 5889 5889 5888 5887 5886 5885 5885 5884 5882 5882 5881 5880 5878 5877 5876 5875 5874 5872 5871 5869 5868 5867 5866
5879 5880 5881 5882 5883 5884 5886 5887 5888 5888 5889 5889 5889 5889 5889 5889 5889 5889 5889 5889 5888 5887 5887 5886 5885 5884 5884 5883 5882 5881 5880 5879 5878 5877 5875 5874 5873 5871 5870 5868 5867 5866 5865
5877 5878 5879 5880 5881 5882 5883 5884 5885 5886 5886 5887 5887 5887 5887 5887 5887 5887 5887 5887 5887 5886 5886 5885 5884 5883 5882 5881 5880 5880 5878 5877 5876 5875 5874 5873 5871 5870 5869 5867 5865 5864 5863
5874 5875 5876 5877 5878 5880 5881 5882 5883 5883 5884 5884 5885 5885 5885 5886 5886 5885 5885 5885 5885 5885 5884 5883 5883 5882 5881 5880 5879 5878 5877 5876 5874 5873 5872 5871 5869 5868 5867 5866 5864 5862 5861
5871 5872 5873 5875 5876 5877 5878 5879 5880 5881 5881 5882 5882 5883 5883 5883 5883 5883 5883 5883 5883 5883 5882 5881 5881 5880 5879 5878 5877 5876 5875 5874 5873 5872 5870 5869 5867 5866 5865 5863 5862 5860 5859
5867 5869 5870 5872 5873 5874 5875 5876 5877 5878 5879 5879 5880 5880 5881 5881 5881 5881 5881 5881 5881 5880 5880 5879 5878 5878 5877 5876 5875 5874 5873 5872 5871 5869 5868 5867 5865 5864 5862 5861 5859 5858 5856
5864 5866 5867 5869 5870 5872 5873 5874 5875 5876 5876 5877 5877 5878 5878 5878 5878 5878 5878 5878 5878 5878 5877 5877 5876 5876 5875 5874 5873 5872 5871 5870 5869 5867 5866 5864 5863 5861 5860 5858 5856 5855 5853
5861 5862 5864 5866 5867 5869 5870 5871 5872 5873 5873 5874 5875 5875 5875 5875 5875 5876 5876 5876 5875 5875 5875 5874 5874 5873 5872 5871 5871 5869 5868 5867 5866 5864 5863 5861 5860 5858 5857 5855 5854 5852 5851
5858 5860 5861 5863 5864 5866 5867 5868 5869 5870 5871 5871 5872 5872 5872 5872 5872 5873 5873 5873 5872 5872 5872 5871 5871 5870 5869 5869 5868 5866 5865 5864 5863 5861 5860 5858 5857 5855 5854 5852 5851 5850 5848
5856 5857 5859 5860 5861 5863 5864 5865 5866 5867 5868 5868 5869 5869 5869 5869 5870 5870 5870 5870 5869 5869 5869 5868 5868 5867 5866 5865 5864 5863 5862 5861 5859 5858 5856 5855 5853 5852 5850 5849 5847 5846 5844
5853 5854 5856 5857 5858 5860 5861 5862 5863 5864 5864 5865 5865 5866 5866 5866 5867 5867 5867 5866 5866 5866 5865 5865 5864 5863 5863 5862 5861 5859 5858 5857 5856 5854 5853 5851 5850 5848 5846 5845 5843 5841 5840
5850 5852 5853 5854 5855 5857 5858 5859 5860 5861 5861 5862 5862 5862 5863 5863 5863 5863 5863 5863 5863 5862 5862 5861 5860 5860 5859 5858 5857 5855 5854 5853 5852 5850 5849 5847 5846 5844 5842 5841 5839 5837 5835
5848 5849 5850 5851 5852 5854 5855 5856 5856 5857 5858 5858 5858 5859 5859 5859 5859 5859 5859 5859 5859 5858 5858 5857 5856 5855 5854 5853 5852 5851 5850 5849 5847 5846 5845 5843 5841 5840 5838 5836 5834 5833 5831
5845 5846 5847 5848 5849 5850 5851 5852 5853 5853 5854 5854 5855 5855 5855 5855 5855 5855 5855 5855 5855 5854 5853 5853 5852 5851 5850 5849 5848 5847 5845 5844 5843 5841 5840 5838 5836 5835 5833 5831 5829 5827 5825
5841 5842 5843 5844 5845 5846 5847 5848 5849 5849 5850 5850 5851 5851 5851 5851 5851 5851 5851 5851 5850 5850 5849 5848 5847 5846 5845 5844 5843 5842 5840 5839 5838 5836 5835 5833 5831 5829 5828 5826 5824 5822 5819
5838 5839 5840 5840 5841 5842 5843 5844 5844 5845 5846 5846 5846 5847 5847 5847 5847 5847 5846 5846 5846 5845 5844 5844 5843 5842 5840 5839 5838 5837 5835 5834 5832 5831 5829 5827 5826 5824 5822 5820 5818 5816 5813
5835 5835 5836 5837 5837 5838 5839 5840 5840 5841 5841 5842 5842 5842 5842 5842 5842 5842 5841 5841 5841 5840 5839 5838 5837 5836 5835 5834 5833 5831 5830 5828 5826 5825 5823 5821 5819 5818 5816 5813 5811 5809 5807
5831 5831 5832 5833 5833 5834 5835 5835 5836 5836 5837 5837 5837 5838 5838 5837 5837 5837 5836 5836 5835 5834 5833 5832 5831 5830 5829 5828 5827 5826 5824 5822 5821 5819 5817 5815 5813 5811 5809 5806 5804 5802 5799
5827 5828 5828 5829 5829 5830 5830 5831 5831 5832 5832 5832 5833 5833 5833 5832 5832 5831 5831 5830 5829 5828 5828 5827 5826 5825 5824 5823 5821 5820 5818 5816 5814 5812 5810 5808 5806 5804 5801 5799 5797 5794 5792
5823 5823 5824 5824 5825 5825 5826 5826 5827 5827 5827 5827 5827 5827 5827 5827 5826 5826 5825 5824 5824 5823 5822 5821 5820 5819 5818 5817 5815 5814 5812 5810 5808 5805 5803 5801 5798 5796 5793 5791 5788 5786 5783
5818 5819 5819 5819 5820 5821 5821 5821 5822 5822 5822 5822 5822 5822 5822 5821 5821 5820 5820 5819 5818 5817 5816 5815 5814 5813 5812 5810 5809 5807 5805 5803 5800 5798 5795 5793 5790 5788 5785 5782 5780 5777 5774
5813 5813 5814 5814 5815 5815 5816 5816 5816 5816 5816 5816 5816 5816 5816 5816 5815 5815 5814 5813 5812 5811 5810 5809 5807 5806 5805 5803 5801 5799 5797 5795 5792 5790 5787 5784 5782 5779 5776 5773 5770 5767 5764
5808 5808 5809 5809 5809 5810 5810 5811 5811 5811 5811 5811 5810 5810 5810 5809 5809 5808 5808 5807 5806 5805 5803 5802 5800 5799 5797 5795 5793 5791 5789 5786 5784 5781 5778 5775 5772 5770 5766 5763 5760 5756 5753
5802 5803 5803 5803 5804 5804 5804 5804 5805 5805 5805 5804 5804 5803 5803 5803 5802 5802 5801 5800 5799 5798 5796 5794 5793 5791 5789 5787 5785 5783 5780 5777 5775 5772 5769 5766 5762 5759 5756 5752 5749 5745 5742
5797 5797 5797 5797 5798 5798 5798 5798 5798 5798 5798 5798 5797 5797 5796 5796 5795 5795 5794 5793 5792 5790 5789 5787 5785 5783 5781 5779 5776 5774 5771 5768 5765 5762 5759 5755 5752 5749 5745 5741 5737 5734 5730
5791 5791 5791 5791 5791 5791 5791 5791 5791 5791 5791 5791 5790 5790 5789 5789 5788 5787 5786 5784 5783 5782 5780 5778 5776 5774 5772 5769 5767 5764 5761 5758 5754 5751 5748 5744 5741 5737 5733 5729 5726 5722 5717